Simultaneous Nadir Overpasses (SNOs) Predictions

Prediction of SNOs between GOES-16 and NOAA-19 Satellite Orbit:

Table of predicted SNOs for the next 14.0 days since TLE Epoch: 10/24/2025
Index Date Time (GOES-16) GOES-16 Lat,Lon NOAA-19 Lat,Lon Distance(km) Time Diff (sec)
1 10/25/2025 16:57:49 0.04,-104.69 -0.01,-104.37 35.70 80
2 10/26/2025 16:45:09 0.05,-104.66 -0.72,-101.29 383.76 80
3 10/28/2025 05:16:19 -0.05,-104.57 -1.04,-108.78 481.72 80
4 10/29/2025 05:03:38 -0.05,-104.54 -0.30,-105.71 133.58 80
5 10/30/2025 04:48:17 -0.06,-104.51 0.37,-102.63 214.62 80
6 11/01/2025 17:06:45 0.06,-104.49 0.63,-107.04 291.24 80
7 11/02/2025 16:56:43 0.06,-104.46 -0.03,-103.95 57.08 80
8 11/03/2025 16:44:03 0.06,-104.43 -0.76,-100.88 405.23 80
9 11/05/2025 05:15:12 -0.05,-104.34 -0.96,-108.37 459.17 80
10 11/06/2025 05:02:31 -0.05,-104.31 -0.28,-105.29 111.28 80
11 11/07/2025 04:47:09 -0.05,-104.28 0.41,-102.21 236.58 80
